[[{"header":{"parameterUnit":"m.s-1","parameterCategory":1,"la1":30.2991,"la2":30.254,"lo1":-89.0895,"lo2":-89.0444,"dy":0.0017,"dx":0.0017,"nx":28,"ny":28,"refTime":"2026-03-02T09:00:00:Z","depth":0,"parameterNumber":2,"parameterNumberName":"U-component_of_WINDS"},"data":[0,0,0,0,0,0,0,0,0,0,0,0,0,0,0,0,0,0,0,0,0,0,0,0,0,0,0,0,0,0,0,0,0,0,0,0,0,0,0,0,0,0,0,0,0,0,0,0,0,0,0,0,0,0,0,0,0,0,-2.7475,-2.7475,0,-2.7481,-2.7481,-2.7481,-2.7379,-2.7376,-2.7373,-2.7371,-2.738,-2.7383,-2.7386,0,0,0,0,0,0,0,0,0,0,0,0,0,-2.7378,-2.738,-2.7475,-2.7475,-2.7475,-2.7481,-2.7481,-2.7481,-2.7379,-2.7376,-2.7373,-2.737,-2.7379,-2.7383,-2.7386,0,0,0,0,0,0,0,0,0,0,0,0,0,-2.7406,-2.7381,-2.7475,-2.7425,-2.7421,-2.7481,-2.7481,-2.7481,-2.738,-2.7376,-2.7372,-2.7368,-2.7378,-2.7382,-2.7387,-2.7496,0,0,-2.74,-2.7401,0,0,0,0,0,0,0,0,-2.7404,-2.7409,-2.7432,-2.7429,-2.7424,-2.7425,-2.745,-2.7486,-2.7381,-2.7396,-2.7371,-2.7366,-2.7399,-2.7401,-2.7411,-2.7497,-2.7497,-2.74,-2.7403,-2.7404,-2.7406,0,0,0,0,0,0,0,-2.7402,-2.7409,-2.7477,-2.7433,-2.7428,-2.7403,-2.7402,-2.7457,-2.7421,-2.7394,-2.7387,-2.7389,-2.7396,-2.7408,-2.7411,-2.7497,-2.74,-2.7404,-2.7406,-2.7408,-2.7672,-2.7676,0,0,0,0,0,0,-2.7407,-2.7408,-2.7477,-2.7478,-2.7403,-2.7408,-2.7407,-2.7429,-2.742,-2.7414,-2.7392,-2.7384,-2.7402,-2.7406,-2.7411,-2.7538,-2.7404,-2.7408,-2.7411,-2.7667,-2.7673,-2.7678,0,0,0,0,0,0,-2.7405,-2.7414,-2.7477,-2.7441,-2.7447,-2.7414,-2.7439,-2.7431,-2.7443,-2.7418,-2.7411,-2.7411,-2.7399,-2.7405,-2.7475,-2.7537,-2.741,-2.7414,-2.7662,-2.7669,-2.7675,-2.7794,0,0,0,0,0,0,-2.7403,-2.7414,-2.7455,-2.7442,-2.7449,-2.7541,-2.7443,-2.7434,-2.745,-2.7439,-2.7434,-2.7429,-2.7396,-2.7469,-2.748,-2.754,-2.7417,-2.7656,-2.7665,-2.7673,-2.7784,-2.7804,-2.782,0,0,0,0,0,-2.74,-2.7489,-2.7458,-2.7467,-2.7499,-2.7545,-2.7549,-2.7508,-2.7455,-2.7497,-2.748,-2.7429,-2.7528,-2.7478,-2.7488,-2.7551,-2.7652,-2.7663,-2.7672,-2.7776,-2.78,-2.782,0,0,0,0,0,0,-2.7511,-2.7487,-2.7451,-2.7539,-2.7545,-2.7527,-2.7578,-2.7535,-2.7557,-2.7546,-2.7496,-2.7495,-2.7574,-2.7569,-2.7513,-2.7656,-2.7581,-2.7594,-2.7657,-2.7679,-2.7697,-2.7696,-2.7421,0,0,0,0,0,-2.7546,-2.7584,-2.7561,-2.764,-2.7645,-2.7611,-2.763,-2.7598,-2.7602,-2.7604,-2.7593,-2.76,-2.7633,-2.7655,-2.7684,-2.7783,-2.778,-2.7831,-2.785,-2.7864,-2.7876,-2.7928,-2.795,-2.771,-2.771,-2.771,0,0,-2.7618,-2.7609,-2.7637,-2.7662,-2.7663,-2.7704,-2.7614,-2.7662,-2.7692,-2.7612,-2.7677,-2.767,-2.7674,-2.7759,-2.7796,-2.7758,-2.7942,-2.7877,-2.7889,-2.7893,-2.794,-2.7963,-2.7983,-2.7717,-2.7716,-2.7715,0,0,-2.7771,-2.7768,-2.7834,-2.7836,-2.7837,-2.7814,-2.783,-2.7819,-2.7811,-2.7875,-2.7816,-2.7851,-2.7909,-2.7914,-2.7924,-2.8078,-2.8032,-2.8089,-2.8184,-2.8235,-2.8254,-2.827,-2.8325,-2.8345,-2.8101,-2.8101,-2.8101,0,-2.7861,-2.792,-2.7873,-2.7925,-2.7938,-2.7865,-2.7932,-2.7936,-2.7948,-2.7959,-2.7916,-2.7985,-2.7983,-2.8068,-2.8106,-2.8117,-2.8134,-2.809,-2.8254,-2.827,-2.8285,-2.8337,-2.8358,-2.8108,-2.8107,-2.8106,-2.8106,0,-2.803,-2.8072,-2.8125,-2.8137,-2.8155,-2.8215,-2.8177,-2.8202,-2.8169,-2.815,-2.8217,-2.8212,-2.8238,-2.8256,-2.8224,-2.8336,-2.8313,-2.8263,-2.8186,-2.8316,-2.8364,-2.8383,-2.8118,-2.8115,-2.8113,-2.8112,0,0,-2.8255,-2.8238,-2.8259,-2.8263,-2.8258,-2.829,-2.8346,-2.837,-2.8392,-2.8403,-2.8448,-2.8498,-2.8451,-2.8463,-2.8431,-2.8476,-2.8598,-2.842,-2.842,-2.8454,-2.8722,-2.876,-2.8783,-2.8567,-2.8571,-2.8574,-2.8721,0,-2.8403,-2.8496,-2.8455,-2.8552,-2.859,-2.8522,-2.857,-2.8574,-2.8558,-2.8588,-2.8571,-2.8607,-2.8543,-2.8549,-2.859,-2.8575,-2.8651,-2.8563,-2.861,-2.8612,-2.8611,-2.8808,-2.8849,-2.8989,-2.874,-2.8743,-2.8745,0,-2.8589,-2.8605,-2.8706,-2.8694,-2.8709,-2.8753,-2.8771,-2.8801,-2.8803,-2.8789,-2.8802,-2.8759,-2.8814,-2.8737,-2.8811,-2.8752,-2.8769,-2.8764,-2.8768,-2.8772,-2.8687,-2.8817,-2.9032,-2.9054,-2.8774,-2.8772,-2.877,0,-2.8742,-2.879,-2.8856,-2.8861,-2.8849,-2.8882,-2.8879,-2.8877,-2.8894,-2.891,-2.892,-2.8944,-2.8957,-2.8976,-2.8942,-2.8889,-2.9021,-2.8942,-2.9011,-2.9012,-2.9043,-2.9041,-2.9264,-2.9053,-2.9053,-2.9052,-2.9052,0,-2.8913,-2.8977,-2.8924,-2.8966,-2.9036,-2.8988,-2.9059,-2.9049,-2.9047,-2.9085,-2.9028,-2.9065,-2.9017,-2.905,-2.9023,-2.9089,-2.9095,-2.9085,-2.9078,-2.9091,-2.9092,-2.9101,-2.9091,-2.9058,-2.9057,-2.9055,-2.9055,0,-2.9096,-2.9064,-2.9131,-2.9114,-2.9111,-2.9164,-2.9149,-2.9186,-2.9166,-2.9215,-2.9224,-2.9192,-2.9228,-2.9195,-2.9229,-2.9211,-2.9299,-2.9277,-2.9298,-2.9292,-2.9364,-2.9358,-2.96,-2.963,-2.94,-2.9402,-2.9404,0,-2.9208,-2.9255,-2.9242,-2.9263,-2.9263,-2.9297,-2.9314,-2.9269,-2.9288,-2.9294,-2.9331,-2.9361,-2.9383,-2.9443,-2.9424,-2.945,-2.9429,-2.9512,-2.9432,-2.9444,-2.943,-2.9428,-2.9433,-2.9528,-2.9531,-2.9533,-2.9535,0,-2.9408,-2.9389,-2.9414,-2.9434,-2.9455,-2.9469,-2.9479,-2.9499,-2.9453,-2.9478,-2.9513,-2.953,-2.9564,-2.9595,-2.9614,-2.9612,-2.9567,-2.956,-2.9577,-2.9592,-2.9602,-2.9598,-2.9343,-2.9555,-2.9553,-2.9551,-2.955,-2.955,-2.9559,-2.9598,-2.9595,-2.9625,-2.9627,-2.9637,-2.9671,-2.9654,-2.9682,-2.9705,-2.9677,-2.972,-2.972,-2.9742,-2.9745,-2.9778,-2.9743,-2.9769,-2.9775,-2.9782,-2.9793,-2.9596,-2.9781,-2.9781,-2.978,-2.978,-2.9779,0,-2.9757,-2.9751,-2.9779,-2.9793,-2.9817,-2.977,-2.9778,-2.9801,-2.9839,-2.9843,-2.9865,-2.9905,-2.9935,-2.9918,-2.9943,-2.9973,-2.9953,-2.9981,-2.9979,-2.9979,-2.9822,-2.9805,-2.9997,-2.9997,-2.9997,-2.9997,-2.9997,-2.9997,-2.9862,-2.9926,-2.9906,-2.997,-2.9964,-3.0004,-3.0013,-3.0022,-3.0024,-3.0071,-3.0095,-3.0083,-3.0078,-3.0103,-3.0128,-3.0122,-3.0135,-3.0171,-3.0158,-3.0012,-2.999,-2.997,-2.9953,-3.0174,-3.0174,-3.0312,-3.0313,-3.0314]},{"header":{"parameterUnit":"m.s-1","parameterCategory":1,"la1":30.2991,"la2":30.254,"lo1":-89.0895,"lo2":-89.0444,"dy":0.0017,"dx":0.0017,"nx":28,"ny":28,"refTime":"2026-03-02T09:00:00:Z","depth":0,"parameterNumber":3,"parameterNumberName":"V-component_of_WINDS"},"data":[0,0,0,0,0,0,0,0,0,0,0,0,0,0,0,0,0,0,0,0,0,0,0,0,0,0,0,0,0,0,0,0,0,0,0,0,0,0,0,0,0,0,0,0,0,0,0,0,0,0,0,0,0,0,0,0,0,0,-0.2711,-0.2711,0,-0.2734,-0.2735,-0.2735,-0.2761,-0.2762,-0.2762,-0.2763,-0.2788,-0.2789,-0.2789,0,0,0,0,0,0,0,0,0,0,0,0,0,-0.269,-0.269,-0.2711,-0.2711,-0.2711,-0.2734,-0.2735,-0.2735,-0.2761,-0.2762,-0.2762,-0.2763,-0.2788,-0.2789,-0.2789,0,0,0,0,0,0,0,0,0,0,0,0,0,-0.2705,-0.269,-0.2711,-0.2727,-0.2729,-0.2734,-0.2735,-0.2735,-0.2761,-0.2762,-0.2762,-0.2763,-0.2788,-0.2788,-0.2789,-0.278,0,0,-0.279,-0.2791,0,0,0,0,0,0,0,0,-0.2704,-0.2706,-0.2724,-0.2726,-0.2728,-0.2746,-0.2737,-0.275,-0.2761,-0.2749,-0.2763,-0.2763,-0.2774,-0.2775,-0.2779,-0.2781,-0.2783,-0.279,-0.2791,-0.2791,-0.2791,0,0,0,0,0,0,0,-0.2703,-0.2705,-0.272,-0.2725,-0.2727,-0.2734,-0.2737,-0.2739,-0.2758,-0.275,-0.2752,-0.2754,-0.2775,-0.2778,-0.2779,-0.2783,-0.279,-0.2791,-0.2791,-0.2791,-0.2781,-0.278,0,0,0,0,0,0,-0.2699,-0.2704,-0.2719,-0.2721,-0.2717,-0.2734,-0.2737,-0.2739,-0.2758,-0.2761,-0.2754,-0.2756,-0.2777,-0.2779,-0.278,-0.2772,-0.2791,-0.2791,-0.2792,-0.2781,-0.278,-0.278,0,0,0,0,0,0,-0.2699,-0.27,-0.2718,-0.2713,-0.2716,-0.2734,-0.2736,-0.2739,-0.2743,-0.2761,-0.2764,-0.2754,-0.2777,-0.278,-0.278,-0.2773,-0.2792,-0.2792,-0.2782,-0.2781,-0.278,-0.2754,0,0,0,0,0,0,-0.2698,-0.27,-0.2696,-0.2713,-0.2716,-0.2717,-0.2736,-0.274,-0.2743,-0.2746,-0.2762,-0.2765,-0.2778,-0.2779,-0.2781,-0.2774,-0.2792,-0.2783,-0.2781,-0.278,-0.2755,-0.2752,-0.2749,0,0,0,0,0,-0.2697,-0.2688,-0.2696,-0.2698,-0.2712,-0.2717,-0.2719,-0.2734,-0.2743,-0.274,-0.2751,-0.2764,-0.2773,-0.2779,-0.2781,-0.2774,-0.2783,-0.2782,-0.2781,-0.2757,-0.2753,-0.2749,0,0,0,0,0,0,-0.2671,-0.2691,-0.27,-0.2696,-0.2704,-0.2721,-0.2718,-0.2729,-0.2736,-0.2738,-0.2757,-0.276,-0.2758,-0.2766,-0.2772,-0.2767,-0.278,-0.2779,-0.2762,-0.2758,-0.2755,-0.2753,-0.2793,0,0,0,0,0,-0.2665,-0.2667,-0.2684,-0.2679,-0.2683,-0.2699,-0.2702,-0.2713,-0.2723,-0.2727,-0.2738,-0.2748,-0.2753,-0.2756,-0.2762,-0.2757,-0.2761,-0.2753,-0.275,-0.2748,-0.2747,-0.2745,-0.2742,-0.2776,-0.2776,-0.2776,0,0,-0.2652,-0.2663,-0.2663,-0.2674,-0.2682,-0.2684,-0.2702,-0.2704,-0.2705,-0.2727,-0.2728,-0.2737,-0.2749,-0.2747,-0.2746,-0.2754,-0.2738,-0.2746,-0.2744,-0.2744,-0.2743,-0.274,-0.2737,-0.2775,-0.2775,-0.2775,0,0,-0.263,-0.2639,-0.2635,-0.2643,-0.2654,-0.2666,-0.2665,-0.268,-0.2687,-0.2688,-0.2704,-0.2707,-0.2715,-0.2723,-0.2728,-0.271,-0.2722,-0.2711,-0.2695,-0.2694,-0.2691,-0.2689,-0.2682,-0.268,-0.271,-0.271,-0.271,0,-0.2613,-0.2616,-0.2632,-0.2632,-0.2637,-0.2656,-0.2653,-0.266,-0.2673,-0.2676,-0.2684,-0.2695,-0.2704,-0.2704,-0.27,-0.2703,-0.2703,-0.2709,-0.269,-0.2688,-0.2686,-0.268,-0.2677,-0.2708,-0.2709,-0.2709,-0.2709,0,-0.2595,-0.2597,-0.2593,-0.2604,-0.2608,-0.2607,-0.2623,-0.2626,-0.2636,-0.2647,-0.2648,-0.266,-0.2669,-0.267,-0.268,-0.2671,-0.2675,-0.2686,-0.27,-0.2681,-0.2676,-0.2674,-0.2706,-0.2707,-0.2707,-0.2708,0,0,-0.2557,-0.2577,-0.2576,-0.2581,-0.2596,-0.2598,-0.2598,-0.2606,-0.2607,-0.2616,-0.2617,-0.2623,-0.2633,-0.2639,-0.2651,-0.2649,-0.2634,-0.2661,-0.2661,-0.2655,-0.2625,-0.2617,-0.2614,-0.2643,-0.2642,-0.2642,-0.2625,0,-0.2537,-0.2537,-0.2552,-0.2548,-0.2551,-0.2569,-0.2569,-0.2578,-0.2588,-0.2592,-0.2604,-0.2608,-0.2621,-0.2625,-0.2624,-0.2636,-0.2628,-0.2638,-0.2644,-0.2644,-0.264,-0.2611,-0.2603,-0.2586,-0.2623,-0.2622,-0.2622,0,-0.2514,-0.2521,-0.2517,-0.2532,-0.2534,-0.2533,-0.2542,-0.2545,-0.2556,-0.2564,-0.257,-0.2584,-0.2585,-0.2598,-0.2601,-0.2607,-0.261,-0.2617,-0.2617,-0.2618,-0.2632,-0.2612,-0.2581,-0.2578,-0.2619,-0.2619,-0.2619,0,-0.2487,-0.2495,-0.2494,-0.2498,-0.2515,-0.2515,-0.2522,-0.2534,-0.2538,-0.2546,-0.2548,-0.2557,-0.2561,-0.2567,-0.2583,-0.2591,-0.2584,-0.2598,-0.2591,-0.259,-0.2588,-0.2588,-0.2557,-0.259,-0.259,-0.2591,-0.2591,0,-0.2463,-0.246,-0.2482,-0.2481,-0.2479,-0.2496,-0.2493,-0.2502,-0.2513,-0.2515,-0.2532,-0.2533,-0.2554,-0.2558,-0.257,-0.2571,-0.2573,-0.2579,-0.2582,-0.2578,-0.2577,-0.258,-0.2582,-0.259,-0.259,-0.259,-0.259,0,-0.2432,-0.2446,-0.2446,-0.2463,-0.2467,-0.2464,-0.2479,-0.2479,-0.249,-0.2493,-0.2494,-0.2512,-0.2518,-0.2534,-0.2544,-0.2552,-0.2549,-0.2555,-0.2545,-0.2547,-0.2539,-0.254,-0.2509,-0.2506,-0.2541,-0.2541,-0.254,0,-0.2416,-0.2414,-0.243,-0.2432,-0.2439,-0.2442,-0.2446,-0.2463,-0.2467,-0.248,-0.2479,-0.2486,-0.2492,-0.2501,-0.2515,-0.2523,-0.253,-0.2519,-0.2531,-0.2526,-0.253,-0.253,-0.253,-0.2516,-0.2515,-0.2515,-0.2514,0,-0.2386,-0.2393,-0.2398,-0.2405,-0.241,-0.2416,-0.2424,-0.2425,-0.2445,-0.2448,-0.2454,-0.2459,-0.2469,-0.2476,-0.2486,-0.2495,-0.2508,-0.251,-0.2509,-0.2504,-0.2498,-0.2501,-0.2538,-0.2511,-0.2511,-0.2512,-0.2512,-0.2512,-0.2362,-0.2361,-0.2372,-0.2377,-0.2385,-0.2392,-0.2393,-0.2404,-0.2409,-0.2419,-0.2429,-0.2434,-0.2446,-0.2461,-0.2468,-0.2473,-0.248,-0.2478,-0.2477,-0.2476,-0.2474,-0.2498,-0.2475,-0.2475,-0.2475,-0.2475,-0.2475,0,-0.2333,-0.2341,-0.2345,-0.2356,-0.236,-0.2371,-0.2381,-0.2383,-0.2387,-0.2397,-0.2403,-0.241,-0.2417,-0.2432,-0.2441,-0.2441,-0.2448,-0.2443,-0.2443,-0.2445,-0.2468,-0.2468,-0.2438,-0.2438,-0.2438,-0.2438,-0.2438,-0.2438,-0.2318,-0.2318,-0.2326,-0.233,-0.2338,-0.2343,-0.2347,-0.2354,-0.2362,-0.2369,-0.2374,-0.2384,-0.2396,-0.2406,-0.2413,-0.2417,-0.242,-0.2413,-0.2419,-0.244,-0.2443,-0.2447,-0.2447,-0.2413,-0.2413,-0.2396,-0.2396,-0.2396]}]]